DW2987 Torino IT current weather conditions

sailwx.info

Wind from 277

Air temperature 7.8° C
Dewpoint 0.3° C

Last reported at 2020-Feb-18 23:46 UTC.
Time now 2020-Feb-19 01:06 UTC

Location: N 45°04' E 007°40'.
View on Google Maps.

See reports from other nearby stations

  
Tides and Currents Weather Stations Pressure Air Temp Water Temp Dewpoint Dewpoint Depression Visibility Wind Speed Wind Dir Waves Ship Positions
date/time (UTC)wind fromknots sea level pressurealtimeterstation pressurevisibilityair tempwater tempwave heightnotes
2020-Feb-18 23:46 277 7.8
2020-Feb-18 23:31 275 1 gusting 3 7.8
2020-Feb-18 23:16 275 8.3
2020-Feb-18 23:00 275 8.3
2020-Feb-18 22:47 274 0 gusting 2 8.3
2020-Feb-18 22:31 274 8.3
2020-Feb-18 22:16 274 8.9
2020-Feb-18 22:01 273 0 gusting 2 8.9
2020-Feb-18 21:46 273 8.9
2020-Feb-18 21:30 273 9.4
2020-Feb-18 21:16 273 9.4
2020-Feb-18 21:01 273 9.4
2020-Feb-18 20:45 273 10.0
2020-Feb-18 20:30 273 10.0
2020-Feb-18 20:15 273 10.0
2020-Feb-18 20:01 273 10.6
2020-Feb-18 19:45 273 11.1
2020-Feb-18 19:30 273 11.7
2020-Feb-18 19:15 273 12.2
2020-Feb-18 19:01 273 12.2
2020-Feb-18 18:45 273 12.2
2020-Feb-18 18:30 273 12.8
2020-Feb-18 18:15 273 12.8
2020-Feb-18 18:00 273 13.3
2020-Feb-18 17:45 273 13.9
2020-Feb-18 17:30 273 14.4
2020-Feb-18 17:15 273 15.0
2020-Feb-18 17:01 273 15.6
2020-Feb-18 16:45 273 16.1
2020-Feb-18 16:30 273 16.7
2020-Feb-18 16:15 274 17.2
2020-Feb-18 16:00 275 17.8
2020-Feb-18 15:46 275 17.8
2020-Feb-18 15:30 275 17.2
2020-Feb-18 15:15 275 17.2
2020-Feb-18 15:00 277 0 gusting 3 18.3
2020-Feb-18 14:45 277 17.2
2020-Feb-18 14:30 276 17.2
2020-Feb-18 14:15 276 16.7
2020-Feb-18 14:00 276 16.7
2020-Feb-18 13:46 276 0 gusting 3 16.7
2020-Feb-18 13:31 277 16.7
2020-Feb-18 13:17 277 16.7
2020-Feb-18 13:01 277 16.1
2020-Feb-18 12:46 277 15.6
2020-Feb-18 12:30 277 14.4
2020-Feb-18 12:17 277 2 gusting 6 13.9
2020-Feb-18 12:01 278 13.9
2020-Feb-18 11:46 300 1 gusting 3 13.3
2020-Feb-18 11:30 301 0 gusting 3 12.8
2020-Feb-18 11:15 302 12.8
2020-Feb-18 11:01 301 12.2
2020-Feb-18 10:45 301 11.7
2020-Feb-18 10:30 301 10.6
2020-Feb-18 10:16 301 0 gusting 4 10.0
2020-Feb-18 10:00 302 9.4
2020-Feb-18 09:45 302 8.9
2020-Feb-18 09:30 302 8.3
2020-Feb-18 09:15 302 7.8
2020-Feb-18 09:00 302 7.2
2020-Feb-18 08:45 303 7.2
2020-Feb-18 08:30 303 6.7
2020-Feb-18 08:18 307 0 gusting 6 6.1
2020-Feb-18 08:02 311 0 gusting 2 5.6
2020-Feb-18 07:47 311 5.6
2020-Feb-18 07:31 311 5.6
2020-Feb-18 07:16 311 5.0
2020-Feb-18 07:01 311 0 gusting 4 5.6
2020-Feb-18 06:46 317 0 gusting 2 5.6
2020-Feb-18 06:31 317 5.6
2020-Feb-18 06:17 317 5.0
2020-Feb-18 06:01 317 5.0
2020-Feb-18 05:46 317 5.0
2020-Feb-18 05:31 317 5.0
2020-Feb-18 05:17 317 5.6
2020-Feb-18 05:01 317 5.6
2020-Feb-18 04:45 317 6.1
2020-Feb-18 04:30 317 6.1
2020-Feb-18 04:15 317 6.1
2020-Feb-18 04:02 317 6.1
2020-Feb-18 03:47 317 6.1
2020-Feb-18 03:31 317 6.7
2020-Feb-18 03:15 317 6.7
2020-Feb-18 03:01 317 6.7
2020-Feb-18 02:46 317 6.7
2020-Feb-18 02:30 317 6.7
2020-Feb-18 02:17 317 1 gusting 3 6.7
2020-Feb-18 02:00 317 6.7
2020-Feb-18 01:46 317 6.7
2020-Feb-18 01:31 317 6.7
2020-Feb-18 01:16 317 6.7
2020-Feb-18 01:00 317 6.7
2020-Feb-18 00:45 317 6.7
2020-Feb-18 00:30 317 6.7
2020-Feb-18 00:15 317 6.7
2020-Feb-18 00:00 317 6.7
2020-Feb-17 23:45 317 6.7
2020-Feb-17 23:30 317 6.7
2020-Feb-17 23:15 317 6.7
2020-Feb-17 23:00 317 7.2
2020-Feb-17 22:45 317 7.2
2020-Feb-17 22:30 317 7.2
2020-Feb-17 22:15 317 7.8
2020-Feb-17 22:00 317 7.8
2020-Feb-17 21:45 317 7.8
2020-Feb-17 21:30 317 7.8
2020-Feb-17 21:16 317 0 gusting 3 8.3
2020-Feb-17 21:00 317 8.3
2020-Feb-17 20:45 316 8.3
2020-Feb-17 20:30 316 1 gusting 6 8.3
2020-Feb-17 20:15 217 8.9
2020-Feb-17 20:00 215 8.9
2020-Feb-17 19:45 215 9.4
2020-Feb-17 19:30 215 9.4
2020-Feb-17 19:15 212 0 gusting 2 10.0
2020-Feb-17 19:00 211 10.0
2020-Feb-17 18:45 211 10.0
2020-Feb-17 18:30 211 10.0
2020-Feb-17 18:15 211 10.0
2020-Feb-17 18:00 211 10.0
2020-Feb-17 17:45 209 10.0
2020-Feb-17 17:30 209 0 gusting 5 10.0
2020-Feb-17 17:15 211 0 gusting 4 10.6
2020-Feb-17 17:00 209 10.6
2020-Feb-17 16:45 211 0 gusting 5 11.1
2020-Feb-17 16:30 212 2 gusting 5 11.1
2020-Feb-17 15:47 221 1 gusting 4 12.2
2020-Feb-17 15:33 221 2 gusting 5 12.2
2020-Feb-17 15:16 219 2 gusting 4 12.2
2020-Feb-17 15:02 215 12.8
2020-Feb-17 14:47 213 12.8
2020-Feb-17 14:31 211 12.8
2020-Feb-17 14:16 209 12.8
2020-Feb-17 14:01 196 0 gusting 6 12.8
2020-Feb-17 13:46 121 0 gusting 3 13.3
2020-Feb-17 13:31 111 1 gusting 6 12.8
2020-Feb-17 13:15 092 12.8
2020-Feb-17 13:01 063 12.8
2020-Feb-17 12:46 063 1 gusting 4 12.8
2020-Feb-17 12:31 053 13.3
2020-Feb-17 12:16 052 0 gusting 3 13.3
2020-Feb-17 12:01 051 12.8
2020-Feb-17 11:47 050 12.8
2020-Feb-17 11:30 049 12.2
2020-Feb-17 11:16 049 12.2
2020-Feb-17 11:00 048 11.7
2020-Feb-17 10:45 047 11.1
2020-Feb-17 10:30 047 10.6
2020-Feb-17 10:15 047 9.4
2020-Feb-17 10:00 047 9.4
2020-Feb-17 09:45 047 8.9
2020-Feb-17 09:30 047 8.3
2020-Feb-17 09:15 047 7.8
2020-Feb-17 09:00 047 7.2
2020-Feb-17 08:45 047 6.7
2020-Feb-17 08:30 047 6.1
2020-Feb-17 08:15 047 6.1
2020-Feb-17 08:01 047 6.1
2020-Feb-17 08:00 047 6.1
2020-Feb-17 07:46 047 5.6
2020-Feb-17 07:31 047 5.0
2020-Feb-17 07:16 047 5.0
2020-Feb-17 07:02 047 5.0
2020-Feb-17 06:47 047 5.0
2020-Feb-17 06:31 047 5.0
2020-Feb-17 06:16 047 5.0
2020-Feb-17 06:01 047 5.0
2020-Feb-17 05:46 047 5.6
2020-Feb-17 05:31 047 5.6
2020-Feb-17 05:16 047 5.0
2020-Feb-17 05:01 047 5.0
2020-Feb-17 04:46 047 5.0
2020-Feb-17 04:32 047 5.0
2020-Feb-17 04:16 047 0 gusting 2 5.0
2020-Feb-17 04:01 047 5.0
2020-Feb-17 03:47 047 5.6
2020-Feb-17 03:31 047 5.6
2020-Feb-17 03:01 047 6.1
2020-Feb-17 02:46 047 6.1
2020-Feb-17 02:30 047 6.7
2020-Feb-17 02:16 047 0 gusting 2 6.7
2020-Feb-17 02:00 047 6.7
2020-Feb-17 01:45 047 6.7
2020-Feb-17 01:30 047 6.7
2020-Feb-17 01:15 047 6.7
2020-Feb-17 01:00 047 7.2